Sagar Kanya — VTJR — position and weather

sailwx.info

Track history (hours):
 
Tides and Currents Weather Stations Pressure Air Temp Water Temp Dewpoint Dewpoint Depression Visibility Wind Speed Wind Dir Waves Ship Positions

Oceanographic research ship Sagar Kanya (India)

Detailed information on ship capabilities available from University of Delaware's Ocean Information Center.

Last reported at 2017-Aug-18 03:08 UTC. Time now 2017-Aug-20 03:46 UTC.
Position N 08°30' E 078°36'.

Type: Other ship. MMSI: 419320000.

Wind from 320 at 16 knots

Barometer 1007.3 mb
Air temperature 29.0 ° C

Date/timePositionNaut miles runAvg speedWind from/ knotsBaromVisibWave heightAir tempDewpointWater temp
2017-Aug-18 03:08N 08°30' E 078°36'12 4.0 320 / 161007.3 29.0
2017-Aug-18 00:08N 08°42' E 078°36'6 2.0 290 / 641005.3 27.5
2017-Aug-17 21:08N 08°42' E 078°42'12 4.0 240 / 191005.1 27.7
2017-Aug-17 18:08N 08°42' E 078°30'6 2.0 290 / 641006.6 28.0
2017-Aug-17 15:08N 08°42' E 078°24'12 4.0 300 / 101006.1 29.4
2017-Aug-17 12:08N 08°42' E 078°12'0 0.0 050 / 21003.3 30.2
2017-Aug-17 09:08N 08°42' E 078°12'0 0.0 290 / 41003.2 31.1
2017-Aug-17 06:08N 08°42' E 078°12'0 0.0 310 / 41007.2 32.8
2017-Aug-17 06:00N 08°42' E 078°12'0 0.0 310 / 41007.2 32.823.7
2017-Aug-17 03:08N 08°42' E 078°12'0 0.0 330 / 41008.7 34.4
2017-Aug-17 00:08N 08°42' E 078°12'0 0.0 320 / 41007.6 28.4
2017-Aug-16 21:08N 08°42' E 078°12'0 0.0 320 / 41007.3 28.9
2017-Aug-16 18:08N 08°42' E 078°12'0 0.0 330 / 41009.3 30.0
2017-Aug-16 15:08N 08°42' E 078°12'0 0.0 340 / 41008.3 31.7
2017-Aug-16 12:08N 08°42' E 078°12'0 0.0 290 / 21005.0 32.3
2017-Aug-16 09:08N 08°42' E 078°12'0 0.0 310 / 41005.8 32.6
2017-Aug-16 06:08N 08°42' E 078°12'0 0.0 230 / 61009.5 36.6
2017-Aug-16 03:08N 08°42' E 078°12'0 0.0 220 / 41010.6 35.0
2017-Aug-16 00:08N 08°42' E 078°12'0 0.0 330 / 21009.6 28.1
2017-Aug-15 21:08N 08°42' E 078°12'0 0.0 010 / 21009.1 28.5
2017-Aug-15 18:08N 08°42' E 078°12'0 0.0 350 / 21010.7 29.6
2017-Aug-15 15:08N 08°42' E 078°12'0 0.0 330 / 21009.4 29.9
2017-Aug-15 12:08N 08°42' E 078°12'0 0.0 320 / 41006.9 30.5
2017-Aug-15 09:08N 08°42' E 078°12'0 0.0 280 / 21007.8 32.9
2017-Aug-15 05:38N 08°42' E 078°12'0 0.0 170 / 41011.5 38.1
2017-Aug-15 03:08N 08°42' E 078°12'0 0.0 060 / 21012.1 33.6
2017-Aug-15 00:08N 08°42' E 078°12'0 0.0 030 / 61010.8 27.0
2017-Aug-14 21:08N 08°42' E 078°12'0 0.0 040 / 81010.4 27.6
2017-Aug-14 18:08N 08°42' E 078°12'0 0.0 110 / 101011.8 28.7
2017-Aug-14 15:08N 08°42' E 078°12'0 0.0 270 / 21011.8 29.1
2017-Aug-14 12:08N 08°42' E 078°12'0 0.0 060 / 21008.6 30.0
2017-Aug-14 09:08N 08°42' E 078°12'0 0.0 170 / 81009.3 34.4
2017-Aug-14 06:08N 08°42' E 078°12'0 0.0 140 / 61011.9 37.2
2017-Aug-14 03:08N 08°42' E 078°12'0 0.0 160 / 661012.2 31.4
2017-Aug-14 00:08N 08°42' E 078°12'0 0.0 080 / 81010.4 28.6
2017-Aug-13 21:08N 08°42' E 078°12'0 0.0 170 / 21009.8 28.7
2017-Aug-13 18:08N 08°42' E 078°12'0 0.0 260 / 21011.5 29.0
2017-Aug-13 15:08N 08°42' E 078°12'0 0.0 240 / 61010.1 28.7
2017-Aug-13 12:08N 08°42' E 078°12'0 0.0 220 / 41008.3 32.3
2017-Aug-13 09:08N 08°42' E 078°12'0 0.0 170 / 81008.6 33.2
2017-Aug-13 06:08N 08°42' E 078°12'0 0.0 160 / 21011.5 34.9
2017-Aug-13 03:08N 08°42' E 078°12'0 0.0 060 / 81012.2 27.9
2017-Aug-13 00:08N 08°42' E 078°12'0 0.0 070 / 81009.3 27.0
2017-Aug-12 20:38N 08°42' E 078°12'0 0.0 040 / 121009.9 28.0
2017-Aug-12 18:08N 08°42' E 078°12'0 0.0 110 / 291010.7 29.4
2017-Aug-12 15:08N 08°42' E 078°12'0 0.0 260 / 21008.8 30.0
2017-Aug-12 12:08N 08°42' E 078°12'0 0.0 160 / 661006.3 29.8
2017-Aug-12 09:08N 08°42' E 078°12'0 0.0 190 / 121007.2 33.2
2017-Aug-12 06:08N 08°42' E 078°12'0 0.0 130 / 81010.0 33.9
2017-Aug-12 03:08N 08°42' E 078°12'8 2.8 040 / 101010.3 32.3
2017-Aug-12 00:08N 08°36' E 078°18'17 5.6 350 / 101009.1 28.5
2017-Aug-11 21:08N 08°24' E 078°30'6 2.0 1008.6 28.5
2017-Aug-11 18:08N 08°24' E 078°24'6 2.0 300 / 101010.3 29.2
2017-Aug-11 15:08N 08°30' E 078°24'6 1.7 350 / 81008.4 30.3
2017-Aug-11 11:38N 08°24' E 078°24'13 5.4 260 / 101005.9 34.6
2017-Aug-11 09:08N 08°12' E 078°30'8 2.8 040 / 621007.1 31.6
2017-Aug-11 06:08N 08°06' E 078°36'13 4.5 300 / 171009.5 30.3
2017-Aug-11 03:08N 07°54' E 078°30'8 2.5 260 / 271010.1 30.4
2017-Aug-10 23:48N 07°48' E 078°24'8 3.2 280 / 271008.9 26.5
2017-Aug-10 21:08N 07°42' E 078°18'8 2.8 280 / 231009.2 26.9
2017-Aug-10 18:08N 07°36' E 078°12'6 2.0 270 / 211010.9 27.6
2017-Aug-10 15:08N 07°30' E 078°12'13 4.4 290 / 211009.0 27.4
2017-Aug-10 12:08N 07°24' E 078°24'6 2.0 350 / 171007.5 28.6
2017-Aug-10 09:08N 07°24' E 078°30'22 1.2 280 / 81007.5 31.5
2017-Aug-09 15:08N 07°12' E 078°12'13 2.2 320 / 141008.8 26.7
2017-Aug-09 09:08N 07°24' E 078°18'31 3.4 310 / 191007.4 30.4
2017-Aug-09 00:08N 07°54' E 078°24'18 6.0 340 / 101007.4 27.4
2017-Aug-08 21:08N 08°12' E 078°24'19 6.3 360 / 61007.4 28.4
2017-Aug-08 18:08N 08°30' E 078°18'13 4.5 350 / 61007.8 28.2
2017-Aug-08 15:08N 08°42' E 078°12'0 0.0 100 / 21008.5 29.0
2017-Aug-08 12:08N 08°42' E 078°12'0 0.0 210 / 141005.4 30.9
2017-Aug-08 08:38N 08°42' E 078°12'0 0.0 160 / 101005.5 36.4
2017-Aug-08 06:08N 08°42' E 078°12'0 0.0 100 / 21007.5 39.5
2017-Aug-08 03:08N 08°42' E 078°12'   050 1007.6 32.0
Track history (hours):
 
Tides and Currents Weather Stations Pressure Air Temp Water Temp Dewpoint Dewpoint Depression Visibility Wind Speed Wind Dir Waves Ship Positions

Oceanographic research ship Sagar Kanya (India)

Detailed information on ship capabilities available from University of Delaware's Ocean Information Center.

Last reported at 2017-Aug-18 03:08 UTC. Time now 2017-Aug-20 03:46 UTC.
Position N 08°30' E 078°36'.

Type: Other ship. MMSI: 419320000.

Wind from 320 at 16 knots

Barometer 1007.3 mb
Air temperature 29.0 ° C

Date/timePositionNaut miles runAvg speedWind from/ knotsBaromVisibWave heightAir tempDewpointWater temp
2017-Aug-18 03:08N 08°30' E 078°36'12 4.0 320 / 161007.3 29.0
2017-Aug-18 00:08N 08°42' E 078°36'6 2.0 290 / 641005.3 27.5
2017-Aug-17 21:08N 08°42' E 078°42'12 4.0 240 / 191005.1 27.7
2017-Aug-17 18:08N 08°42' E 078°30'6 2.0 290 / 641006.6 28.0
2017-Aug-17 15:08N 08°42' E 078°24'12 4.0 300 / 101006.1 29.4
2017-Aug-17 12:08N 08°42' E 078°12'0 0.0 050 / 21003.3 30.2
2017-Aug-17 09:08N 08°42' E 078°12'0 0.0 290 / 41003.2 31.1
2017-Aug-17 06:08N 08°42' E 078°12'0 0.0 310 / 41007.2 32.8
2017-Aug-17 06:00N 08°42' E 078°12'0 0.0 310 / 41007.2 32.823.7
2017-Aug-17 03:08N 08°42' E 078°12'0 0.0 330 / 41008.7 34.4
2017-Aug-17 00:08N 08°42' E 078°12'0 0.0 320 / 41007.6 28.4
2017-Aug-16 21:08N 08°42' E 078°12'0 0.0 320 / 41007.3 28.9
2017-Aug-16 18:08N 08°42' E 078°12'0 0.0 330 / 41009.3 30.0
2017-Aug-16 15:08N 08°42' E 078°12'0 0.0 340 / 41008.3 31.7
2017-Aug-16 12:08N 08°42' E 078°12'0 0.0 290 / 21005.0 32.3
2017-Aug-16 09:08N 08°42' E 078°12'0 0.0 310 / 41005.8 32.6
2017-Aug-16 06:08N 08°42' E 078°12'0 0.0 230 / 61009.5 36.6
2017-Aug-16 03:08N 08°42' E 078°12'0 0.0 220 / 41010.6 35.0
2017-Aug-16 00:08N 08°42' E 078°12'0 0.0 330 / 21009.6 28.1
2017-Aug-15 21:08N 08°42' E 078°12'0 0.0 010 / 21009.1 28.5
2017-Aug-15 18:08N 08°42' E 078°12'0 0.0 350 / 21010.7 29.6
2017-Aug-15 15:08N 08°42' E 078°12'0 0.0 330 / 21009.4 29.9
2017-Aug-15 12:08N 08°42' E 078°12'0 0.0 320 / 41006.9 30.5
2017-Aug-15 09:08N 08°42' E 078°12'0 0.0 280 / 21007.8 32.9
2017-Aug-15 05:38N 08°42' E 078°12'0 0.0 170 / 41011.5 38.1
2017-Aug-15 03:08N 08°42' E 078°12'0 0.0 060 / 21012.1 33.6
2017-Aug-15 00:08N 08°42' E 078°12'0 0.0 030 / 61010.8 27.0
2017-Aug-14 21:08N 08°42' E 078°12'0 0.0 040 / 81010.4 27.6
2017-Aug-14 18:08N 08°42' E 078°12'0 0.0 110 / 101011.8 28.7
2017-Aug-14 15:08N 08°42' E 078°12'0 0.0 270 / 21011.8 29.1
2017-Aug-14 12:08N 08°42' E 078°12'0 0.0 060 / 21008.6 30.0
2017-Aug-14 09:08N 08°42' E 078°12'0 0.0 170 / 81009.3 34.4
2017-Aug-14 06:08N 08°42' E 078°12'0 0.0 140 / 61011.9 37.2
2017-Aug-14 03:08N 08°42' E 078°12'0 0.0 160 / 661012.2 31.4
2017-Aug-14 00:08N 08°42' E 078°12'0 0.0 080 / 81010.4 28.6
2017-Aug-13 21:08N 08°42' E 078°12'0 0.0 170 / 21009.8 28.7
2017-Aug-13 18:08N 08°42' E 078°12'0 0.0 260 / 21011.5 29.0
2017-Aug-13 15:08N 08°42' E 078°12'0 0.0 240 / 61010.1 28.7
2017-Aug-13 12:08N 08°42' E 078°12'0 0.0 220 / 41008.3 32.3
2017-Aug-13 09:08N 08°42' E 078°12'0 0.0 170 / 81008.6 33.2
2017-Aug-13 06:08N 08°42' E 078°12'0 0.0 160 / 21011.5 34.9
2017-Aug-13 03:08N 08°42' E 078°12'0 0.0 060 / 81012.2 27.9
2017-Aug-13 00:08N 08°42' E 078°12'0 0.0 070 / 81009.3 27.0
2017-Aug-12 20:38N 08°42' E 078°12'0 0.0 040 / 121009.9 28.0
2017-Aug-12 18:08N 08°42' E 078°12'0 0.0 110 / 291010.7 29.4
2017-Aug-12 15:08N 08°42' E 078°12'0 0.0 260 / 21008.8 30.0
2017-Aug-12 12:08N 08°42' E 078°12'0 0.0 160 / 661006.3 29.8
2017-Aug-12 09:08N 08°42' E 078°12'0 0.0 190 / 121007.2 33.2
2017-Aug-12 06:08N 08°42' E 078°12'0 0.0 130 / 81010.0 33.9
2017-Aug-12 03:08N 08°42' E 078°12'8 2.8 040 / 101010.3 32.3
2017-Aug-12 00:08N 08°36' E 078°18'17 5.6 350 / 101009.1 28.5
2017-Aug-11 21:08N 08°24' E 078°30'6 2.0 1008.6 28.5
2017-Aug-11 18:08N 08°24' E 078°24'6 2.0 300 / 101010.3 29.2
2017-Aug-11 15:08N 08°30' E 078°24'6 1.7 350 / 81008.4 30.3
2017-Aug-11 11:38N 08°24' E 078°24'13 5.4 260 / 101005.9 34.6
2017-Aug-11 09:08N 08°12' E 078°30'8 2.8 040 / 621007.1 31.6
2017-Aug-11 06:08N 08°06' E 078°36'13 4.5 300 / 171009.5 30.3
2017-Aug-11 03:08N 07°54' E 078°30'8 2.5 260 / 271010.1 30.4
2017-Aug-10 23:48N 07°48' E 078°24'8 3.2 280 / 271008.9 26.5
2017-Aug-10 21:08N 07°42' E 078°18'8 2.8 280 / 231009.2 26.9
2017-Aug-10 18:08N 07°36' E 078°12'6 2.0 270 / 211010.9 27.6
2017-Aug-10 15:08N 07°30' E 078°12'13 4.4 290 / 211009.0 27.4
2017-Aug-10 12:08N 07°24' E 078°24'6 2.0 350 / 171007.5 28.6
2017-Aug-10 09:08N 07°24' E 078°30'22 1.2 280 / 81007.5 31.5
2017-Aug-09 15:08N 07°12' E 078°12'13 2.2 320 / 141008.8 26.7
2017-Aug-09 09:08N 07°24' E 078°18'31 3.4 310 / 191007.4 30.4
2017-Aug-09 00:08N 07°54' E 078°24'18 6.0 340 / 101007.4 27.4
2017-Aug-08 21:08N 08°12' E 078°24'19 6.3 360 / 61007.4 28.4
2017-Aug-08 18:08N 08°30' E 078°18'13 4.5 350 / 61007.8 28.2
2017-Aug-08 15:08N 08°42' E 078°12'0 0.0 100 / 21008.5 29.0
2017-Aug-08 12:08N 08°42' E 078°12'0 0.0 210 / 141005.4 30.9
2017-Aug-08 08:38N 08°42' E 078°12'0 0.0 160 / 101005.5 36.4
2017-Aug-08 06:08N 08°42' E 078°12'0 0.0 100 / 21007.5 39.5
2017-Aug-08 03:08N 08°42' E 078°12'   050 1007.6 32.0

Dump ship's entire track history